CMA-CGM Fort Saint Pierre — FQFM — position and weather

sailwx.info

Track history (hours):
 
Tides and Currents Weather Stations Pressure Air Temp Water Temp Dewpoint Dewpoint Depression Visibility Wind Speed Wind Dir Waves Ship Positions

CMA-CGM Fort Saint Pierre

Last reported at 2014-Aug-06 20:31 UTC. Time now 2014-Aug-21 06:24 UTC.
Position N 37°08' W 032°32'.
Warning: this ship's position is 14 days out of date.

Length 197 m; beam 30 m.

Type: Ship (hazmat cat A). MMSI: 226328000.

Date/timePositionNaut miles runAvg speedWind from/ knotsBaromVisibWave heightAir tempDewpointWater temp
2014-Aug-06 20:31N 37°08' W 032°32'3812.3
2014-Aug-06 17:26N 37°28' W 031°51'1618.3
2014-Aug-06 16:32N 37°36' W 031°34'1818.3
2014-Aug-06 15:33N 37°46' W 031°15'1818.3
2014-Aug-06 14:33N 37°55' W 030°55'1918.6
2014-Aug-06 13:33N 38°05' W 030°35'1818.4
2014-Aug-06 12:33N 38°15' W 030°15'1918.7
2014-Aug-06 11:33N 38°25' W 029°55'1818.4
2014-Aug-06 10:33N 38°34' W 029°35'1919.0
2014-Aug-06 09:33N 38°44' W 029°14'1919.1
2014-Aug-06 08:33N 38°54' W 028°53'1818.5
2014-Aug-06 07:33N 39°04' W 028°33'1818.5
2014-Aug-06 06:33N 39°14' W 028°13'1918.5
2014-Aug-06 05:33N 39°23' W 027°52'1918.5
2014-Aug-06 04:33N 39°32' W 027°31'  
2014-Aug-02 15:33N 47°14' W 003°28'6220.3
2014-Aug-02 12:30N 47°48' W 004°45'1920.4
2014-Aug-02 11:34N 47°58' W 005°09'17116.3
2014-Aug-02 01:04N 50°04' W 002°14'1119.6
2014-Aug-02 00:31N 50°05' W 001°57'2218.4
2014-Aug-01 23:20N 49°55' W 001°27'1618.2
2014-Aug-01 22:29N 49°48' W 001°05'2119.3
2014-Aug-01 21:25N 49°38' W 000°37'1720.0
2014-Aug-01 20:33N 49°32' W 000°12'1413.7
2014-Aug-01 19:33N 49°28' E 000°08'1 0.9
2014-Aug-01 18:29N 49°28' E 000°09'0 0.0
2014-Aug-01 17:32N 49°28' E 000°09'0 0.0
2014-Aug-01 16:32N 49°28' E 000°09'0 0.0
2014-Aug-01 15:32N 49°28' E 000°09'0 0.0
2014-Aug-01 14:32N 49°28' E 000°09'0 0.0
2014-Aug-01 13:32N 49°28' E 000°09'0 0.0
2014-Aug-01 12:32N 49°28' E 000°09'0 0.0
2014-Aug-01 11:33N 49°28' E 000°09'0 0.0
2014-Aug-01 10:33N 49°28' E 000°09'0 0.0
2014-Aug-01 09:33N 49°28' E 000°09'0 0.0
2014-Aug-01 08:33N 49°28' E 000°09'0 0.0
2014-Aug-01 07:33N 49°28' E 000°09'0 0.0
2014-Aug-01 06:33N 49°28' E 000°09'0 0.0
2014-Aug-01 05:33N 49°28' E 000°09'0 0.0
2014-Aug-01 04:33N 49°28' E 000°09'0 0.0
2014-Aug-01 03:33N 49°28' E 000°09'0 0.0
2014-Aug-01 02:33N 49°28' E 000°09'0 0.0
2014-Aug-01 01:33N 49°28' E 000°09'0 0.0
2014-Aug-01 00:33N 49°28' E 000°09'0 0.0
2014-Jul-31 23:33N 49°28' E 000°09'0 0.0
2014-Jul-31 22:33N 49°28' E 000°09'0 0.0
2014-Jul-31 21:33N 49°28' E 000°09'0 0.0
2014-Jul-31 20:33N 49°28' E 000°09'0 0.0
2014-Jul-31 19:33N 49°28' E 000°09'0 0.0
2014-Jul-31 18:33N 49°28' E 000°09'0 0.0
2014-Jul-31 17:33N 49°28' E 000°09'0 0.0
2014-Jul-31 16:33N 49°28' E 000°09'0 0.0
2014-Jul-31 15:33N 49°28' E 000°09'0 0.5
2014-Jul-31 14:33N 49°28' E 000°09'8 8.2
2014-Jul-31 13:33N 49°30' W 000°04'8 8.5
2014-Jul-31 12:33N 49°26' E 000°08'1111.5
2014-Jul-31 11:33N 49°27' E 000°26'7 6.7
2014-Jul-31 10:30N 49°26' E 000°36'1 0.0
2014-Jul-29 22:31N 49°26' E 000°35'10 9.9
2014-Jul-29 21:33N 49°26' E 000°20'1313.4
2014-Jul-29 20:34N 49°28' W 000°00'9 8.9
2014-Jul-29 19:34N 49°33' W 000°11'1212.2
2014-Jul-29 18:33N 49°45' W 000°10'1312.5
2014-Jul-29 17:29N 49°59' W 000°10'1112.5
2014-Jul-29 16:34N 50°10' W 000°09'1413.1
2014-Jul-29 15:31N 50°23' W 000°05'1313.5
2014-Jul-29 14:33N 50°30' E 000°13'1413.7
2014-Jul-29 13:33N 50°34' E 000°33'1413.8
2014-Jul-29 12:33N 50°42' E 000°51'1413.7
2014-Jul-29 11:33N 50°50' E 001°08'1212.4
2014-Jul-29 10:33N 50°58' E 001°23'1313.2
2014-Jul-29 09:34N 51°07' E 001°39'1312.8
2014-Jul-29 08:33N 51°03' E 001°59'8 7.5
2014-Jul-29 07:29N 51°01' E 002°11'0 0.0
2014-Jul-29 06:28N 51°01' E 002°11'0 0.0
2014-Jul-29 05:31N 51°01' E 002°11'0 0.0
2014-Jul-29 04:13N 51°01' E 002°11'0 0.0
2014-Jul-29 03:28N 51°01' E 002°11'0 0.0
2014-Jul-29 02:31N 51°01' E 002°11'0 0.0
2014-Jul-29 01:31N 51°01' E 002°11'0 0.0
2014-Jul-29 00:25N 51°01' E 002°11'0 0.0
2014-Jul-28 23:31N 51°01' E 002°11'0 0.0
2014-Jul-28 21:31N 51°01' E 002°11'0 0.0
2014-Jul-28 18:25N 51°01' E 002°11'0 0.0
2014-Jul-28 17:31N 51°01' E 002°11'0 0.0
2014-Jul-28 16:16N 51°01' E 002°11'0 0.0
2014-Jul-28 15:22N 51°01' E 002°11'0 0.0
2014-Jul-28 14:31N 51°01' E 002°11'0 0.0
2014-Jul-28 12:10N 51°01' E 002°11'0 0.0
2014-Jul-28 11:28N 51°01' E 002°11'0 0.0
2014-Jul-28 10:31N 51°01' E 002°11'0 0.0
2014-Jul-28 09:31N 51°01' E 002°11'0 0.0
2014-Jul-28 08:28N 51°01' E 002°11'0 0.0
2014-Jul-28 07:31N 51°01' E 002°11'0 0.0
2014-Jul-28 06:16N 51°01' E 002°11'0 0.0
2014-Jul-28 05:28N 51°01' E 002°11'0 0.0
2014-Jul-28 04:31N 51°01' E 002°11'0 0.0
2014-Jul-28 03:31N 51°01' E 002°11'0 0.4
2014-Jul-28 02:34N 51°01' E 002°11'1111.0
2014-Jul-28 01:33N 51°03' E 001°53'1312.2
2014-Jul-28 00:31N 50°57' E 001°35'1515.9
2014-Jul-27 23:33N 50°44' E 001°24'1818.1
2014-Jul-27 22:33N 50°32' E 001°03'2820.3
2014-Jul-27 21:11N 50°22' E 000°22'1321.1
2014-Jul-27 20:33N 50°20' E 000°02'  
Track history (hours):
 
Tides and Currents Weather Stations Pressure Air Temp Water Temp Dewpoint Dewpoint Depression Visibility Wind Speed Wind Dir Waves Ship Positions

CMA-CGM Fort Saint Pierre

Last reported at 2014-Aug-06 20:31 UTC. Time now 2014-Aug-21 06:24 UTC.
Position N 37°08' W 032°32'.
Warning: this ship's position is 14 days out of date.

Length 197 m; beam 30 m.

Type: Ship (hazmat cat A). MMSI: 226328000.

Date/timePositionNaut miles runAvg speedWind from/ knotsBaromVisibWave heightAir tempDewpointWater temp
2014-Aug-06 20:31N 37°08' W 032°32'3812.3
2014-Aug-06 17:26N 37°28' W 031°51'1618.3
2014-Aug-06 16:32N 37°36' W 031°34'1818.3
2014-Aug-06 15:33N 37°46' W 031°15'1818.3
2014-Aug-06 14:33N 37°55' W 030°55'1918.6
2014-Aug-06 13:33N 38°05' W 030°35'1818.4
2014-Aug-06 12:33N 38°15' W 030°15'1918.7
2014-Aug-06 11:33N 38°25' W 029°55'1818.4
2014-Aug-06 10:33N 38°34' W 029°35'1919.0
2014-Aug-06 09:33N 38°44' W 029°14'1919.1
2014-Aug-06 08:33N 38°54' W 028°53'1818.5
2014-Aug-06 07:33N 39°04' W 028°33'1818.5
2014-Aug-06 06:33N 39°14' W 028°13'1918.5
2014-Aug-06 05:33N 39°23' W 027°52'1918.5
2014-Aug-06 04:33N 39°32' W 027°31'  
2014-Aug-02 15:33N 47°14' W 003°28'6220.3
2014-Aug-02 12:30N 47°48' W 004°45'1920.4
2014-Aug-02 11:34N 47°58' W 005°09'17116.3
2014-Aug-02 01:04N 50°04' W 002°14'1119.6
2014-Aug-02 00:31N 50°05' W 001°57'2218.4
2014-Aug-01 23:20N 49°55' W 001°27'1618.2
2014-Aug-01 22:29N 49°48' W 001°05'2119.3
2014-Aug-01 21:25N 49°38' W 000°37'1720.0
2014-Aug-01 20:33N 49°32' W 000°12'1413.7
2014-Aug-01 19:33N 49°28' E 000°08'1 0.9
2014-Aug-01 18:29N 49°28' E 000°09'0 0.0
2014-Aug-01 17:32N 49°28' E 000°09'0 0.0
2014-Aug-01 16:32N 49°28' E 000°09'0 0.0
2014-Aug-01 15:32N 49°28' E 000°09'0 0.0
2014-Aug-01 14:32N 49°28' E 000°09'0 0.0
2014-Aug-01 13:32N 49°28' E 000°09'0 0.0
2014-Aug-01 12:32N 49°28' E 000°09'0 0.0
2014-Aug-01 11:33N 49°28' E 000°09'0 0.0
2014-Aug-01 10:33N 49°28' E 000°09'0 0.0
2014-Aug-01 09:33N 49°28' E 000°09'0 0.0
2014-Aug-01 08:33N 49°28' E 000°09'0 0.0
2014-Aug-01 07:33N 49°28' E 000°09'0 0.0
2014-Aug-01 06:33N 49°28' E 000°09'0 0.0
2014-Aug-01 05:33N 49°28' E 000°09'0 0.0
2014-Aug-01 04:33N 49°28' E 000°09'0 0.0
2014-Aug-01 03:33N 49°28' E 000°09'0 0.0
2014-Aug-01 02:33N 49°28' E 000°09'0 0.0
2014-Aug-01 01:33N 49°28' E 000°09'0 0.0
2014-Aug-01 00:33N 49°28' E 000°09'0 0.0
2014-Jul-31 23:33N 49°28' E 000°09'0 0.0
2014-Jul-31 22:33N 49°28' E 000°09'0 0.0
2014-Jul-31 21:33N 49°28' E 000°09'0 0.0
2014-Jul-31 20:33N 49°28' E 000°09'0 0.0
2014-Jul-31 19:33N 49°28' E 000°09'0 0.0
2014-Jul-31 18:33N 49°28' E 000°09'0 0.0
2014-Jul-31 17:33N 49°28' E 000°09'0 0.0
2014-Jul-31 16:33N 49°28' E 000°09'0 0.0
2014-Jul-31 15:33N 49°28' E 000°09'0 0.5
2014-Jul-31 14:33N 49°28' E 000°09'8 8.2
2014-Jul-31 13:33N 49°30' W 000°04'8 8.5
2014-Jul-31 12:33N 49°26' E 000°08'1111.5
2014-Jul-31 11:33N 49°27' E 000°26'7 6.7
2014-Jul-31 10:30N 49°26' E 000°36'1 0.0
2014-Jul-29 22:31N 49°26' E 000°35'10 9.9
2014-Jul-29 21:33N 49°26' E 000°20'1313.4
2014-Jul-29 20:34N 49°28' W 000°00'9 8.9
2014-Jul-29 19:34N 49°33' W 000°11'1212.2
2014-Jul-29 18:33N 49°45' W 000°10'1312.5
2014-Jul-29 17:29N 49°59' W 000°10'1112.5
2014-Jul-29 16:34N 50°10' W 000°09'1413.1
2014-Jul-29 15:31N 50°23' W 000°05'1313.5
2014-Jul-29 14:33N 50°30' E 000°13'1413.7
2014-Jul-29 13:33N 50°34' E 000°33'1413.8
2014-Jul-29 12:33N 50°42' E 000°51'1413.7
2014-Jul-29 11:33N 50°50' E 001°08'1212.4
2014-Jul-29 10:33N 50°58' E 001°23'1313.2
2014-Jul-29 09:34N 51°07' E 001°39'1312.8
2014-Jul-29 08:33N 51°03' E 001°59'8 7.5
2014-Jul-29 07:29N 51°01' E 002°11'0 0.0
2014-Jul-29 06:28N 51°01' E 002°11'0 0.0
2014-Jul-29 05:31N 51°01' E 002°11'0 0.0
2014-Jul-29 04:13N 51°01' E 002°11'0 0.0
2014-Jul-29 03:28N 51°01' E 002°11'0 0.0
2014-Jul-29 02:31N 51°01' E 002°11'0 0.0
2014-Jul-29 01:31N 51°01' E 002°11'0 0.0
2014-Jul-29 00:25N 51°01' E 002°11'0 0.0
2014-Jul-28 23:31N 51°01' E 002°11'0 0.0
2014-Jul-28 21:31N 51°01' E 002°11'0 0.0
2014-Jul-28 18:25N 51°01' E 002°11'0 0.0
2014-Jul-28 17:31N 51°01' E 002°11'0 0.0
2014-Jul-28 16:16N 51°01' E 002°11'0 0.0
2014-Jul-28 15:22N 51°01' E 002°11'0 0.0
2014-Jul-28 14:31N 51°01' E 002°11'0 0.0
2014-Jul-28 12:10N 51°01' E 002°11'0 0.0
2014-Jul-28 11:28N 51°01' E 002°11'0 0.0
2014-Jul-28 10:31N 51°01' E 002°11'0 0.0
2014-Jul-28 09:31N 51°01' E 002°11'0 0.0
2014-Jul-28 08:28N 51°01' E 002°11'0 0.0
2014-Jul-28 07:31N 51°01' E 002°11'0 0.0
2014-Jul-28 06:16N 51°01' E 002°11'0 0.0
2014-Jul-28 05:28N 51°01' E 002°11'0 0.0
2014-Jul-28 04:31N 51°01' E 002°11'0 0.0
2014-Jul-28 03:31N 51°01' E 002°11'0 0.4
2014-Jul-28 02:34N 51°01' E 002°11'1111.0
2014-Jul-28 01:33N 51°03' E 001°53'1312.2
2014-Jul-28 00:31N 50°57' E 001°35'1515.9
2014-Jul-27 23:33N 50°44' E 001°24'1818.1
2014-Jul-27 22:33N 50°32' E 001°03'2820.3
2014-Jul-27 21:11N 50°22' E 000°22'1321.1
2014-Jul-27 20:33N 50°20' E 000°02'  

Dump ship's entire track history